QPF
0.11 0.13 0.13 0.14 0.11 0.10 0.08 0.08 0.06 0.06 0.06 0.06 0.05 0.04 0.03 0.01 0.03 0.04 0.03 0.03 0.03 0.03 0.03 0.03 0.04 0.04 0.04 0.04 0.04 0.04 0.05 0.05 0.04 0.03 0.04 0.04 0.04 0.04 0.04 0.06 0.07 0.08 0.08
0.09 0.10 0.12 0.13 0.11 0.11 0.09 0.08 0.06 0.06 0.05 0.07 0.07 0.04 0.04 0.04 0.03 0.03 0.03 0.02 0.02 0.03 0.04 0.04 0.05 0.06 0.05 0.04 0.04 0.04 0.05 0.06 0.05 0.03 0.03 0.03 0.03 0.04 0.03 0.03 0.04 0.05 0.07
0.06 0.08 0.10 0.10 0.08 0.08 0.08 0.08 0.08 0.07 0.07 0.06 0.06 0.04 0.05 0.06 0.05 0.04 0.03 0.02 0.03 0.02 0.03 0.04 0.05 0.06 0.06 0.05 0.04 0.04 0.04 0.04 0.04 0.04 0.05 0.04 0.04 0.04 0.04 0.04 0.03 0.04 0.05
0.07 0.08 0.08 0.08 0.08 0.08 0.07 0.07 0.08 0.08 0.08 0.07 0.05 0.05 0.06 0.08 0.07 0.05 0.04 0.02 0.03 0.02 0.03 0.03 0.04 0.05 0.05 0.06 0.05 0.05 0.04 0.03 0.03 0.04 0.04 0.05 0.05 0.05 0.04 0.05 0.04 0.05 0.05
0.08 0.09 0.10 0.10 0.09 0.09 0.08 0.07 0.07 0.05 0.06 0.06 0.05 0.06 0.06 0.06 0.06 0.06 0.05 0.04 0.04 0.04 0.04 0.04 0.05 0.05 0.05 0.05 0.06 0.06 0.05 0.04 0.03 0.04 0.04 0.05 0.06 0.06 0.05 0.04 0.04 0.04 0.05
0.07 0.09 0.11 0.11 0.11 0.11 0.12 0.12 0.10 0.07 0.06 0.05 0.06 0.08 0.07 0.06 0.05 0.06 0.05 0.04 0.04 0.03 0.04 0.05 0.07 0.06 0.05 0.05 0.06 0.06 0.06 0.06 0.05 0.04 0.03 0.04 0.05 0.05 0.05 0.05 0.04 0.04 0.05
0.06 0.08 0.09 0.10 0.10 0.11 0.13 0.12 0.10 0.08 0.07 0.06 0.08 0.10 0.10 0.06 0.05 0.05 0.04 0.04 0.04 0.03 0.05 0.07 0.11 0.09 0.06 0.05 0.06 0.06 0.06 0.07 0.06 0.04 0.03 0.04 0.05 0.05 0.05 0.03 0.03 0.04 0.04
0.05 0.06 0.08 0.09 0.10 0.11 0.13 0.14 0.11 0.09 0.06 0.06 0.06 0.09 0.09 0.09 0.08 0.04 0.03 0.03 0.03 0.03 0.03 0.03 0.08 0.11 0.09 0.06 0.04 0.05 0.06 0.05 0.05 0.04 0.04 0.04 0.04 0.04 0.03 0.03 0.03 0.03 0.04
0.05 0.05 0.07 0.09 0.09 0.08 0.09 0.10 0.09 0.08 0.07 0.06 0.06 0.07 0.07 0.08 0.08 0.06 0.04 0.03 0.02 0.02 0.02 0.02 0.02 0.06 0.09 0.09 0.05 0.05 0.05 0.04 0.04 0.03 0.04 0.03 0.03 0.04 0.03 0.04 0.06 0.06 0.05
0.05 0.05 0.06 0.08 0.09 0.08 0.10 0.08 0.09 0.09 0.10 0.10 0.07 0.05 0.05 0.06 0.07 0.08 0.05 0.03 0.03 0.02 0.02 0.02 0.02 0.04 0.06 0.09 0.10 0.07 0.05 0.03 0.02 0.03 0.04 0.04 0.03 0.04 0.04 0.05 0.07 0.07 0.07
0.07 0.06 0.06 0.06 0.08 0.09 0.10 0.10 0.11 0.09 0.08 0.08 0.08 0.06 0.05 0.05 0.04 0.06 0.07 0.05 0.03 0.02 0.02 0.03 0.04 0.04 0.06 0.09 0.10 0.08 0.06 0.04 0.02 0.03 0.04 0.04 0.04 0.04 0.04 0.05 0.05 0.06 0.05
0.07 0.06 0.06 0.07 0.08 0.10 0.11 0.10 0.09 0.07 0.07 0.05 0.05 0.04 0.04 0.05 0.04 0.05 0.06 0.05 0.03 0.02 0.01 0.02 0.03 0.04 0.05 0.08 0.09 0.08 0.07 0.07 0.06 0.05 0.05 0.05 0.05 0.04 0.03 0.04 0.04 0.04 0.04
0.06 0.05 0.06 0.08 0.07 0.07 0.09 0.12 0.10 0.09 0.08 0.06 0.05 0.04 0.03 0.02 0.02 0.03 0.05 0.04 0.03 0.03 0.02 0.02 0.03 0.03 0.03 0.04 0.06 0.05 0.05 0.04 0.04 0.04 0.05 0.05 0.06 0.05 0.04 0.03 0.04 0.02 0.02
0.06 0.06 0.06 0.06 0.06 0.05 0.07 0.09 0.10 0.11 0.10 0.08 0.05 0.04 0.03 0.01 0.01 0.02 0.03 0.04 0.04 0.04 0.04 0.04 0.03 0.03 0.03 0.03 0.03 0.03 0.04 0.03 0.02 0.02 0.04 0.05 0.06 0.05 0.03 0.03 0.04 0.02 0.02
0.07 0.07 0.06 0.06 0.07 0.06 0.07 0.07 0.08 0.08 0.10 0.10 0.08 0.06 0.05 0.03 0.02 0.01 0.01 0.03 0.04 0.04 0.04 0.03 0.03 0.02 0.02 0.02 0.02 0.02 0.02 0.03 0.03 0.02 0.03 0.03 0.05 0.05 0.03 0.02 0.01 0.01 0.01
0.07 0.07 0.07 0.07 0.08 0.08 0.07 0.07 0.07 0.07 0.08 0.09 0.09 0.09 0.07 0.04 0.03 0.02 0.02 0.03 0.03 0.04 0.04 0.03 0.02 0.01 0.01 0.01 0.01 0.01 0.02 0.02 0.02 0.02 0.03 0.03 0.03 0.03 0.02 0.01 0.01 0.01 0.01
0.08 0.08 0.07 0.07 0.08 0.07 0.06 0.07 0.07 0.07 0.07 0.07 0.07 0.08 0.08 0.05 0.04 0.03 0.03 0.03 0.03 0.04 0.06 0.03 0.02 0.01 0.01 0.01 0.01 0.01 0.01 0.03 0.03 0.02 0.02 0.03 0.03 0.02 0.01 0.01 0.00 0.00 0.00
0.10 0.09 0.08 0.07 0.07 0.07 0.07 0.07 0.06 0.07 0.06 0.06 0.07 0.07 0.07 0.06 0.06 0.05 0.05 0.04 0.04 0.04 0.05 0.04 0.02 0.02 0.02 0.01 0.01 0.01 0.01 0.01 0.03 0.04 0.04 0.03 0.03 0.03 0.02 0.01 0.00 0.00 0.00
0.08 0.09 0.08 0.07 0.07 0.06 0.06 0.06 0.06 0.09 0.07 0.05 0.05 0.06 0.06 0.07 0.07 0.07 0.06 0.05 0.05 0.04 0.04 0.04 0.02 0.02 0.02 0.01 0.01 0.01 0.00 0.01 0.01 0.01 0.02 0.03 0.03 0.02 0.02 0.01 0.01 0.00 0.00
0.05 0.05 0.05 0.05 0.06 0.05 0.04 0.04 0.05 0.07 0.08 0.06 0.04 0.05 0.06 0.06 0.07 0.06 0.05 0.05 0.05 0.05 0.05 0.05 0.03 0.02 0.02 0.01 0.01 0.01 0.01 0.01 0.00 0.01 0.01 0.01 0.01 0.01 0.01 0.01 0.01 0.00 0.00
0.06 0.06 0.05 0.05 0.06 0.07 0.06 0.05 0.06 0.06 0.08 0.08 0.07 0.05 0.05 0.05 0.05 0.04 0.03 0.04 0.04 0.04 0.05 0.05 0.04 0.03 0.02 0.03 0.02 0.02 0.01 0.01 0.01 0.01 0.01 0.01 0.01 0.01 0.01 0.01 0.01 0.00 0.00
0.08 0.08 0.07 0.06 0.06 0.05 0.06 0.07 0.06 0.06 0.08 0.09 0.09 0.08 0.06 0.05 0.04 0.04 0.03 0.03 0.04 0.04 0.04 0.04 0.03 0.03 0.03 0.04 0.03 0.02 0.02 0.02 0.01 0.01 0.01 0.02 0.02 0.02 0.02 0.02 0.01 0.01 0.00
0.08 0.09 0.08 0.06 0.05 0.05 0.05 0.06 0.06 0.05 0.06 0.07 0.08 0.09 0.05 0.03 0.02 0.02 0.02 0.02 0.02 0.02 0.02 0.03 0.03 0.03 0.03 0.03 0.04 0.03 0.03 0.03 0.03 0.02 0.02 0.02 0.02 0.03 0.02 0.01 0.02 0.01 0.01
0.07 0.09 0.08 0.08 0.05 0.05 0.03 0.04 0.05 0.04 0.05 0.06 0.07 0.08 0.07 0.04 0.03 0.02 0.02 0.02 0.02 0.01 0.01 0.01 0.03 0.03 0.03 0.04 0.04 0.04 0.05 0.05 0.04 0.03 0.03 0.02 0.02 0.02 0.03 0.03 0.02 0.02 0.01
0.06 0.08 0.07 0.09 0.07 0.06 0.04 0.03 0.04 0.04 0.05 0.06 0.07 0.08 0.08 0.06 0.05 0.03 0.02 0.03 0.03 0.02 0.01 0.01 0.02 0.02 0.02 0.03 0.03 0.04 0.05 0.05 0.05 0.04 0.04 0.02 0.02 0.02 0.02 0.03 0.03 0.02 0.02
0.06 0.06 0.07 0.08 0.09 0.08 0.05 0.03 0.04 0.04 0.05 0.06 0.08 0.09 0.09 0.08 0.07 0.04 0.02 0.03 0.03 0.02 0.02 0.02 0.02 0.02 0.02 0.02 0.02 0.03 0.04 0.05 0.06 0.05 0.05 0.05 0.03 0.02 0.02 0.02 0.03 0.02 0.02
MSLP
1008.17 1008.38 1008.63 1008.96 1009.42 1010.01 1010.73 1011.53 1012.35 1013.14 1013.86 1014.48 1015.02 1015.50 1015.94 1016.40 1016.87 1017.37 1017.87 1018.33 1018.73 1019.05 1019.29 1019.47 1019.59 1019.70 1019.81 1019.93 1020.07 1020.20 1020.31 1020.38 1020.41 1020.39 1020.33 1020.27 1020.20 1020.15 1020.09 1020.02 1019.92 1019.78 1019.60
1009.23 1009.50 1009.79 1010.13 1010.57 1011.12 1011.77 1012.50 1013.26 1013.99 1014.68 1015.28 1015.80 1016.26 1016.69 1017.10 1017.51 1017.93 1018.34 1018.73 1019.08 1019.37 1019.61 1019.81 1019.98 1020.14 1020.29 1020.44 1020.58 1020.70 1020.76 1020.79 1020.76 1020.70 1020.62 1020.55 1020.51 1020.48 1020.48 1020.46 1020.42 1020.34 1020.20
1010.29 1010.64 1010.98 1011.35 1011.78 1012.30 1012.90 1013.56 1014.25 1014.93 1015.56 1016.12 1016.62 1017.05 1017.43 1017.79 1018.13 1018.47 1018.79 1019.10 1019.38 1019.63 1019.87 1020.08 1020.29 1020.49 1020.68 1020.86 1021.01 1021.10 1021.14 1021.12 1021.05 1020.96 1020.86 1020.79 1020.76 1020.77 1020.80 1020.84 1020.85 1020.81 1020.71
1011.29 1011.70 1012.11 1012.52 1012.97 1013.47 1014.03 1014.63 1015.25 1015.85 1016.43 1016.94 1017.39 1017.79 1018.13 1018.43 1018.71 1018.97 1019.21 1019.44 1019.66 1019.88 1020.09 1020.30 1020.53 1020.76 1020.98 1021.18 1021.33 1021.42 1021.45 1021.40 1021.31 1021.19 1021.08 1021.01 1020.99 1021.01 1021.08 1021.15 1021.19 1021.19 1021.12
1012.18 1012.66 1013.12 1013.58 1014.05 1014.54 1015.06 1015.60 1016.15 1016.69 1017.19 1017.65 1018.05 1018.41 1018.72 1018.99 1019.23 1019.44 1019.62 1019.80 1019.96 1020.13 1020.31 1020.51 1020.74 1020.97 1021.20 1021.41 1021.57 1021.67 1021.69 1021.65 1021.55 1021.43 1021.32 1021.25 1021.23 1021.26 1021.33 1021.41 1021.47 1021.48 1021.42
1012.95 1013.48 1013.99 1014.48 1014.97 1015.46 1015.95 1016.43 1016.90 1017.36 1017.78 1018.18 1018.54 1018.87 1019.17 1019.43 1019.66 1019.85 1020.01 1020.16 1020.29 1020.42 1020.57 1020.74 1020.94 1021.16 1021.38 1021.59 1021.76 1021.87 1021.91 1021.88 1021.81 1021.71 1021.61 1021.54 1021.52 1021.55 1021.60 1021.67 1021.71 1021.72 1021.66
1013.59 1014.15 1014.70 1015.23 1015.73 1016.21 1016.66 1017.07 1017.47 1017.83 1018.18 1018.51 1018.83 1019.14 1019.44 1019.72 1019.97 1020.18 1020.36 1020.50 1020.62 1020.73 1020.85 1020.98 1021.15 1021.34 1021.55 1021.75 1021.92 1022.05 1022.12 1022.13 1022.10 1022.03 1021.96 1021.91 1021.88 1021.88 1021.91 1021.94 1021.95 1021.93 1021.85
1014.13 1014.71 1015.27 1015.82 1016.32 1016.78 1017.18 1017.53 1017.84 1018.11 1018.37 1018.64 1018.92 1019.22 1019.53 1019.84 1020.14 1020.41 1020.62 1020.80 1020.93 1021.03 1021.12 1021.23 1021.35 1021.51 1021.69 1021.88 1022.07 1022.22 1022.34 1022.40 1022.42 1022.41 1022.37 1022.33 1022.30 1022.27 1022.25 1022.23 1022.19 1022.13 1022.04
1014.56 1015.14 1015.71 1016.26 1016.76 1017.19 1017.54 1017.82 1018.04 1018.22 1018.39 1018.59 1018.83 1019.12 1019.45 1019.80 1020.16 1020.49 1020.77 1020.99 1021.15 1021.26 1021.35 1021.43 1021.53 1021.65 1021.81 1022.00 1022.19 1022.38 1022.54 1022.67 1022.75 1022.79 1022.80 1022.77 1022.73 1022.67 1022.60 1022.52 1022.43 1022.33 1022.21
1014.87 1015.45 1016.02 1016.56 1017.05 1017.45 1017.75 1017.96 1018.10 1018.20 1018.30 1018.43 1018.62 1018.89 1019.23 1019.62 1020.02 1020.41 1020.76 1021.03 1021.23 1021.37 1021.47 1021.54 1021.63 1021.74 1021.89 1022.07 1022.28 1022.50 1022.71 1022.89 1023.03 1023.12 1023.17 1023.16 1023.11 1023.02 1022.91 1022.78 1022.64 1022.49 1022.35
1015.07 1015.63 1016.19 1016.73 1017.20 1017.58 1017.84 1018.01 1018.08 1018.11 1018.14 1018.21 1018.35 1018.59 1018.93 1019.33 1019.76 1020.20 1020.59 1020.91 1021.16 1021.34 1021.45 1021.54 1021.63 1021.74 1021.89 1022.08 1022.31 1022.55 1022.80 1023.02 1023.21 1023.34 1023.41 1023.42 1023.37 1023.27 1023.12 1022.95 1022.77 1022.59 1022.43
1015.12 1015.67 1016.22 1016.75 1017.22 1017.58 1017.83 1017.96 1018.00 1017.99 1017.96 1017.99 1018.09 1018.29 1018.60 1018.99 1019.43 1019.88 1020.30 1020.66 1020.94 1021.16 1021.31 1021.43 1021.54 1021.67 1021.83 1022.03 1022.26 1022.52 1022.78 1023.03 1023.24 1023.40 1023.49 1023.51 1023.46 1023.36 1023.20 1023.01 1022.80 1022.60 1022.43
1015.04 1015.57 1016.12 1016.64 1017.10 1017.47 1017.72 1017.85 1017.89 1017.86 1017.82 1017.81 1017.88 1018.04 1018.31 1018.67 1019.09 1019.52 1019.94 1020.31 1020.62 1020.87 1021.06 1021.22 1021.37 1021.53 1021.71 1021.92 1022.16 1022.41 1022.67 1022.91 1023.12 1023.28 1023.37 1023.40 1023.37 1023.26 1023.11 1022.92 1022.72 1022.52 1022.34
1014.84 1015.35 1015.88 1016.40 1016.87 1017.26 1017.53 1017.69 1017.75 1017.74 1017.71 1017.70 1017.75 1017.89 1018.12 1018.43 1018.79 1019.19 1019.58 1019.95 1020.27 1020.54 1020.77 1020.98 1021.17 1021.36 1021.56 1021.78 1022.01 1022.25 1022.48 1022.69 1022.87 1023.00 1023.09 1023.12 1023.09 1023.01 1022.88 1022.72 1022.53 1022.34 1022.16
1014.56 1015.05 1015.56 1016.08 1016.56 1016.97 1017.28 1017.49 1017.61 1017.65 1017.66 1017.68 1017.73 1017.85 1018.03 1018.29 1018.60 1018.94 1019.29 1019.63 1019.95 1020.24 1020.50 1020.74 1020.98 1021.20 1021.43 1021.65 1021.86 1022.06 1022.24 1022.40 1022.53 1022.62 1022.68 1022.70 1022.69 1022.63 1022.54 1022.42 1022.26 1022.10 1021.93
1014.26 1014.72 1015.21 1015.71 1016.20 1016.63 1016.99 1017.27 1017.46 1017.58 1017.65 1017.72 1017.79 1017.91 1018.07 1018.28 1018.53 1018.81 1019.11 1019.41 1019.71 1020.00 1020.29 1020.57 1020.83 1021.09 1021.33 1021.55 1021.73 1021.89 1022.01 1022.10 1022.16 1022.20 1022.22 1022.23 1022.22 1022.19 1022.14 1022.06 1021.95 1021.82 1021.67
1014.00 1014.42 1014.88 1015.37 1015.85 1016.31 1016.71 1017.05 1017.31 1017.51 1017.67 1017.79 1017.92 1018.05 1018.20 1018.38 1018.58 1018.81 1019.05 1019.31 1019.58 1019.87 1020.16 1020.46 1020.75 1021.03 1021.28 1021.48 1021.64 1021.75 1021.80 1021.82 1021.81 1021.79 1021.77 1021.75 1021.74 1021.73 1021.71 1021.68 1021.61 1021.51 1021.38
1013.81 1014.19 1014.62 1015.08 1015.56 1016.03 1016.46 1016.85 1017.18 1017.45 1017.68 1017.88 1018.05 1018.21 1018.37 1018.54 1018.71 1018.89 1019.09 1019.31 1019.55 1019.82 1020.11 1020.41 1020.72 1021.00 1021.25 1021.45 1021.58 1021.64 1021.65 1021.60 1021.53 1021.44 1021.37 1021.32 1021.30 1021.29 1021.29 1021.29 1021.26 1021.19 1021.07
1013.70 1014.06 1014.46 1014.90 1015.36 1015.82 1016.27 1016.68 1017.05 1017.38 1017.67 1017.93 1018.15 1018.36 1018.54 1018.70 1018.86 1019.02 1019.18 1019.37 1019.58 1019.82 1020.10 1020.39 1020.69 1020.98 1021.23 1021.41 1021.53 1021.56 1021.53 1021.44 1021.31 1021.18 1021.06 1020.97 1020.92 1020.90 1020.89 1020.89 1020.87 1020.82 1020.72
1013.67 1014.02 1014.41 1014.83 1015.26 1015.70 1016.13 1016.55 1016.93 1017.29 1017.62 1017.92 1018.19 1018.43 1018.64 1018.82 1018.99 1019.13 1019.28 1019.44 1019.62 1019.84 1020.09 1020.37 1020.66 1020.93 1021.17 1021.35 1021.46 1021.49 1021.44 1021.32 1021.17 1021.00 1020.85 1020.72 1020.62 1020.56 1020.52 1020.50 1020.46 1020.40 1020.30
1013.68 1014.04 1014.43 1014.83 1015.25 1015.66 1016.06 1016.45 1016.82 1017.17 1017.51 1017.83 1018.13 1018.41 1018.65 1018.86 1019.04 1019.20 1019.35 1019.49 1019.65 1019.84 1020.06 1020.31 1020.58 1020.83 1021.07 1021.25 1021.36 1021.40 1021.35 1021.25 1021.09 1020.91 1020.72 1020.55 1020.41 1020.29 1020.19 1020.11 1020.03 1019.94 1019.82
1013.68 1014.08 1014.48 1014.89 1015.28 1015.65 1016.01 1016.36 1016.69 1017.02 1017.34 1017.66 1017.98 1018.28 1018.56 1018.81 1019.02 1019.20 1019.36 1019.50 1019.65 1019.81 1020.00 1020.22 1020.45 1020.69 1020.91 1021.09 1021.22 1021.28 1021.27 1021.19 1021.05 1020.87 1020.68 1020.48 1020.28 1020.09 1019.92 1019.76 1019.61 1019.46 1019.31
1013.64 1014.09 1014.52 1014.93 1015.31 1015.65 1015.96 1016.25 1016.54 1016.82 1017.11 1017.43 1017.75 1018.07 1018.38 1018.67 1018.92 1019.14 1019.32 1019.47 1019.61 1019.76 1019.91 1020.09 1020.29 1020.50 1020.71 1020.89 1021.04 1021.13 1021.16 1021.13 1021.04 1020.89 1020.70 1020.48 1020.24 1019.99 1019.74 1019.49 1019.24 1019.01 1018.81
1013.52 1014.02 1014.49 1014.92 1015.29 1015.60 1015.87 1016.11 1016.34 1016.58 1016.84 1017.13 1017.45 1017.80 1018.14 1018.47 1018.77 1019.02 1019.24 1019.41 1019.55 1019.68 1019.81 1019.96 1020.11 1020.29 1020.48 1020.66 1020.83 1020.96 1021.04 1021.07 1021.03 1020.93 1020.77 1020.55 1020.29 1019.99 1019.67 1019.33 1018.99 1018.68 1018.40
1013.30 1013.85 1014.36 1014.80 1015.17 1015.46 1015.71 1015.91 1016.10 1016.30 1016.54 1016.82 1017.14 1017.49 1017.87 1018.24 1018.58 1018.88 1019.13 1019.33 1019.48 1019.60 1019.71 1019.82 1019.94 1020.08 1020.24 1020.42 1020.59 1020.75 1020.88 1020.97 1021.00 1020.96 1020.84 1020.66 1020.40 1020.08 1019.70 1019.30 1018.89 1018.49 1018.14
1012.99 1013.57 1014.09 1014.55 1014.92 1015.21 1015.44 1015.63 1015.80 1015.99 1016.22 1016.49 1016.82 1017.20 1017.60 1018.00 1018.38 1018.72 1019.00 1019.22 1019.39 1019.51 1019.60 1019.68 1019.77 1019.87 1020.00 1020.16 1020.33 1020.51 1020.68 1020.82 1020.91 1020.93 1020.88 1020.74 1020.52 1020.20 1019.82 1019.38 1018.92 1018.47 1018.06
Thickness
5753 5752 5751 5749 5748 5748 5747 5745 5745 5745 5746 5746 5745 5745 5745 5744 5742 5738 5735 5733 5732 5731 5730 5729 5728 5727 5726 5725 5725 5724 5723 5723 5722 5720 5719 5718 5717 5715 5714 5714 5712 5711 5710
5751 5750 5748 5747 5747 5746 5745 5744 5744 5743 5743 5743 5743 5744 5742 5741 5740 5737 5734 5732 5730 5729 5728 5728 5727 5726 5725 5724 5723 5722 5722 5721 5720 5718 5717 5716 5714 5713 5712 5711 5710 5709 5708
5748 5747 5745 5744 5744 5744 5743 5742 5742 5741 5741 5741 5740 5741 5740 5738 5737 5736 5734 5731 5729 5728 5727 5726 5726 5725 5724 5723 5722 5721 5720 5719 5718 5716 5714 5713 5712 5711 5710 5709 5708 5707 5706
5745 5744 5742 5742 5742 5741 5741 5739 5739 5737 5737 5736 5736 5737 5737 5736 5736 5735 5733 5732 5730 5728 5726 5725 5724 5723 5722 5721 5720 5719 5718 5717 5716 5714 5712 5711 5709 5708 5707 5706 5705 5704 5703
5742 5741 5740 5739 5739 5739 5738 5737 5736 5734 5732 5732 5733 5733 5734 5734 5734 5734 5732 5731 5729 5728 5726 5724 5722 5721 5720 5720 5719 5718 5716 5715 5713 5712 5710 5709 5707 5706 5705 5704 5703 5701 5701
5739 5738 5737 5737 5737 5735 5734 5733 5732 5731 5730 5730 5731 5730 5730 5731 5732 5732 5731 5729 5728 5727 5725 5723 5721 5719 5719 5718 5717 5716 5714 5713 5711 5710 5708 5706 5705 5704 5702 5701 5700 5699 5698
5736 5735 5734 5733 5733 5731 5730 5730 5728 5726 5726 5727 5723 5721 5724 5727 5728 5728 5728 5727 5726 5725 5724 5722 5720 5718 5717 5716 5715 5714 5712 5710 5708 5707 5706 5704 5703 5702 5700 5699 5698 5697 5696
5733 5732 5731 5729 5729 5728 5726 5725 5724 5721 5722 5723 5718 5713 5711 5714 5719 5725 5724 5723 5723 5723 5722 5721 5720 5718 5716 5714 5713 5711 5709 5708 5706 5704 5703 5702 5700 5699 5698 5697 5696 5694 5693
5731 5729 5728 5727 5726 5725 5722 5721 5720 5717 5715 5718 5718 5712 5706 5704 5709 5715 5719 5720 5720 5719 5719 5719 5718 5716 5714 5712 5710 5708 5706 5704 5703 5701 5699 5698 5697 5696 5695 5694 5693 5692 5691
5728 5726 5725 5723 5722 5721 5719 5718 5717 5716 5714 5711 5713 5714 5714 5712 5705 5703 5709 5714 5715 5716 5716 5716 5715 5713 5711 5709 5707 5705 5703 5701 5699 5697 5696 5695 5694 5693 5692 5691 5690 5689 5688
5724 5723 5721 5719 5718 5717 5716 5715 5714 5712 5711 5709 5708 5709 5709 5710 5710 5703 5699 5703 5708 5711 5712 5713 5712 5711 5709 5707 5704 5701 5699 5697 5695 5694 5693 5692 5691 5690 5689 5688 5687 5686 5685
5719 5718 5717 5716 5714 5713 5712 5711 5710 5709 5708 5707 5706 5707 5706 5705 5704 5703 5699 5699 5700 5704 5708 5709 5709 5708 5706 5704 5702 5699 5696 5694 5692 5690 5689 5688 5687 5687 5686 5685 5684 5683 5682
5714 5714 5714 5712 5710 5709 5709 5708 5707 5706 5705 5703 5703 5704 5705 5706 5707 5704 5700 5698 5698 5700 5703 5705 5706 5705 5703 5701 5698 5695 5693 5691 5689 5688 5686 5685 5684 5684 5683 5682 5681 5680 5678
5712 5711 5709 5708 5706 5705 5705 5704 5703 5702 5702 5701 5701 5701 5702 5704 5705 5703 5701 5696 5692 5694 5696 5698 5702 5702 5700 5697 5694 5692 5690 5688 5687 5685 5683 5682 5682 5681 5680 5679 5678 5676 5675
5710 5707 5705 5703 5702 5701 5701 5700 5699 5698 5698 5697 5697 5697 5697 5699 5701 5701 5701 5699 5692 5686 5687 5693 5696 5698 5696 5694 5691 5689 5687 5686 5684 5682 5681 5680 5679 5677 5677 5676 5674 5673 5671
5705 5703 5701 5699 5698 5697 5697 5696 5694 5694 5693 5692 5692 5692 5693 5694 5696 5697 5697 5697 5695 5690 5686 5691 5693 5694 5693 5691 5688 5687 5685 5683 5682 5680 5679 5678 5676 5675 5674 5672 5671 5670 5668
5700 5698 5697 5695 5694 5693 5692 5691 5690 5690 5689 5689 5689 5689 5689 5689 5690 5691 5691 5691 5691 5689 5683 5686 5690 5690 5689 5687 5685 5684 5682 5681 5679 5679 5677 5676 5674 5673 5671 5670 5669 5667 5666
5695 5695 5693 5692 5690 5689 5689 5687 5686 5686 5685 5685 5685 5685 5684 5685 5684 5685 5685 5686 5686 5686 5683 5679 5682 5683 5684 5683 5681 5680 5679 5679 5677 5677 5676 5674 5672 5671 5669 5668 5666 5665 5663
5690 5690 5689 5687 5686 5685 5684 5684 5683 5683 5682 5682 5681 5681 5680 5680 5679 5680 5680 5680 5681 5682 5681 5678 5677 5679 5678 5679 5677 5676 5676 5676 5675 5676 5674 5672 5670 5669 5667 5666 5664 5662 5661
5685 5685 5684 5683 5682 5681 5680 5680 5679 5678 5678 5678 5678 5678 5678 5677 5676 5676 5676 5675 5676 5675 5675 5674 5673 5673 5673 5674 5673 5670 5669 5671 5672 5673 5672 5670 5668 5667 5665 5664 5662 5660 5658
5681 5680 5679 5678 5678 5677 5676 5675 5674 5674 5673 5673 5673 5674 5675 5674 5673 5672 5672 5671 5670 5669 5668 5667 5667 5667 5667 5667 5666 5666 5664 5666 5667 5669 5667 5667 5665 5664 5662 5661 5659 5658 5656
5676 5675 5674 5673 5673 5673 5671 5670 5669 5669 5669 5669 5668 5669 5670 5669 5669 5668 5668 5667 5666 5664 5663 5662 5661 5661 5661 5662 5662 5662 5660 5659 5658 5664 5663 5662 5663 5661 5661 5659 5658 5657 5655
5669 5669 5669 5669 5668 5667 5665 5664 5663 5664 5664 5664 5664 5664 5666 5667 5665 5664 5663 5662 5661 5661 5660 5658 5656 5657 5657 5658 5657 5656 5655 5654 5655 5658 5657 5656 5659 5658 5659 5659 5657 5655 5653
5664 5663 5663 5663 5663 5662 5660 5659 5658 5658 5659 5660 5661 5661 5660 5660 5661 5659 5658 5657 5657 5657 5656 5655 5655 5655 5655 5654 5653 5652 5652 5652 5653 5655 5654 5651 5653 5654 5657 5656 5655 5653 5651
5658 5658 5659 5658 5658 5657 5655 5654 5653 5654 5655 5656 5656 5656 5656 5656 5655 5654 5653 5652 5651 5651 5652 5652 5651 5651 5650 5649 5648 5646 5645 5644 5644 5648 5651 5648 5649 5650 5651 5651 5651 5650 5648
5653 5653 5654 5654 5654 5653 5650 5649 5648 5649 5650 5650 5651 5651 5650 5650 5649 5648 5647 5646 5645 5646 5646 5646 5645 5646 5646 5645 5644 5643 5642 5639 5640 5642 5647 5645 5645 5644 5643 5647 5647 5646 5643